Location: Hungerford
(51.4167°N, 1.5167°W)
Time: 13:49:14
(UTC+00:00)

Iridium 4 Rocket - Pass Details

Date: 18 September 2020
Orbit: 584 x 904 km, 86.9° (Epoch: 25 October)

Event Time Altitude Azimuth Distance (km) Brightness Sun altitude
Rises 19:21:42 0° 197° (SSW) 3,083 6.6 -11.4°
Reaches altitude 10° 19:23:57 10° 202° (SSW) 2,217 6.0 -11.7°
Maximum altitude 19:28:48 53° 279° (W) 950 4.4 -12.5°
Drops below altitude 10° 19:34:10 10° 356° (N) 2,440 6.4 -13.3°
Sets 19:36:44 0° 1° (N) 3,422 7.1 -13.6°
